Location: Luxembourg
(49.6117°N, 6.1300°E)
Time: 17:57:04
(UTC+02:00)

Tiangong - Visible Passes

Search period start: 13 May 2026 00:00
Search period end: 23 May 2026 00:00
Orbit: 379 x 384 km, 41.5° (Epoch: 13 May)

Date Brightness Start Highest point End Pass type
(mag) Time Alt. Az. Time Alt. Az. Time Alt. Az.
13 May -0.4 04:40:17 16° SSW 04:41:11 17° S 04:43:22 10° SE visible
14 May 0.3 03:42:34 12° SE 03:42:34 12° SE 03:42:59 10° SE visible
15 May 0.0 04:17:15 13° S 04:17:15 13° S 04:18:08 10° SSE visible
20 May 0.0 22:12:02 10° S 22:12:44 11° SSE 22:13:26 10° SE visible
21 May -0.4 22:45:59 10° SSW 22:48:05 16° S 22:48:11 16° SSE visible
22 May -0.2 23:21:11 10° SW 23:22:34 17° SSW 23:22:34 17° SSW visible
